User: anonymous   Login
Location: Theydon Bois
(51.6750°N, 0.1050°E)
Time: 11:56:20
(UTC+01:00)
Language:

Cosmos 1295 Rocket - Orbit

View from above orbital plane
View from above orbital plane
View from above satellite
View from above satellite

Ground track
Ground track

The orbit data is extracted from the following two-line orbital elements,

1 12682U 81077B   18202.63627621 +.00000001 +00000-0 -13231-4 0  9994
2 12682 082.9157 077.3795 0032962 305.1051 054.7018 13.78543055857633
Epoch (UTC): 21 July 2018 15:16:14
Eccentricity: 0.0032962
inclination: 82.9157°
perigee height: 945 km
apogee height: 993 km
right ascension of ascending node: 77.3795°
argument of perigee: 305.1051°
revolutions per day: 13.78543055
mean anomaly at epoch: 54.7018°
orbit number at epoch: 85763

The dashed part of the orbit path shows where the satellite is in the earth's shadow,  

DLR